Hourly Data Report for November 24, 2016

All times are specified in Local Standard Time (LST). Add 1 hour to adjust for Daylight Saving Time where and when it is observed.

KITCHENER/WATERLOO
ONTARIO

43°27'39.000" N
80°22'43.000" W
321.60 m
6144239
71368
YKF

Download Data

Hourly Data (November 2016)
Hourly Data Report for November 24, 2016
Temp Definition
°C
Dew Point Temp Definition
°C
Rel Hum Definition
%
Wind Dir Definition
10's deg

Wind Spd Definition
km/h
Visibility Definition
km
Stn Press Definition
kPa
Hmdx Definition


Wind Chill Definition


Weather Definition


TIME
00:00 Legend Double Dagger -0.2 -0.8 96 10 17 6.4 98.17   -5 Snow
01:00 Legend Double Dagger 0.0 -0.4 97 9 17 11.3 98.07   -5 Freezing Rain
02:00 Legend Double Dagger 0.3 -0.1 97 9 21 6.4 98.02     Rain,Fog
03:00 Legend Double Dagger 0.4 0.1 98 13 11 4.8 97.97     Rain,Fog
04:00 Legend Double Dagger 0.6 0.2 97 8 24 6.4 97.86     Rain,Fog
05:00 Legend Double Dagger 0.9 0.5 97 9 17 11.3 97.84     Rain
06:00 Legend Double Dagger 1.2 0.8 97 8 15 4.8 97.79     Rain,Fog
07:00 Legend Double Dagger 1.4 1.0 97 11 13 4.8 97.84     Rain,Fog
08:00 Legend Double Dagger 1.2 0.8 97 10 15 2.8 97.87     Rain,Fog
09:00 Legend Double Dagger 1.1 0.7 97 8 13 6.4 97.86     Rain,Fog
10:00 Legend Double Dagger 1.5 1.1 97 7 13 2.0 97.89     Rain,Fog
11:00 Legend Double Dagger 2.3 2.0 98 7 13 2.0 97.88     Rain,Fog
12:00 Legend Double Dagger 2.7 2.3 97 8 5 1.6 97.89     Fog
13:00 Legend Double Dagger 2.7 2.3 97 6 8 1.6 97.92     Fog
14:00 Legend Double Dagger 2.9 2.5 97 5 5 1.6 97.95     Fog
15:00 Legend Double Dagger 2.9 2.5 97 3 4 1.6 98.00     Fog
16:00 Legend Double Dagger 2.9 2.6 98   0 0.8 98.07     Fog
17:00 Legend Double Dagger 3.0 2.7 98   0 0.2 98.14     Rain,Fog
18:00 Legend Double Dagger 3.0 2.7 98 21 5 1.6 98.21     Fog
19:00 Legend Double Dagger 2.9 2.6 98 17 4 1.2 98.20     Rain,Fog
20:00 Legend Double Dagger 2.9 2.6 98 19 5 1.2 98.23     Rain,Fog
21:00 Legend Double Dagger 3.0 2.7 98 19 4 0.4 98.25     Fog
22:00 Legend Double Dagger 3.1 2.8 98 17 4 0.4 98.24     Fog
23:00 Legend Double Dagger 3.3 3.0 98 19 8 0.4 98.28     Fog

Notes on Data Quality.

Legend

  • E = Estimated
  • M = Missing
  • NA = Not Available
  • ‡ = Partner data that is not subject to review by the National Climate Archives
Date modified: